"Pseudo-MPEC" for P11bxkC
Created 2021 Jan 15 19:07:23 UT using Find_Orb
Click here for an explanation of pseudo-MPECs
Astrometry: P11bxkC C2020 12 16.12255 00 23 41.12 +25 50 39.2 ~17IM 21.9 GVNEOCPG96 P11bxkC C2020 12 16.13838 00 23 41.61 +25 50 36.7 ~17IM 21.0 GVNEOCPG96 P11bxkC C2021 01 06`P[:XL=kH^e$[*+%VIG5skr+^uL0k3:L'sSDU`V@?8KJq[MJFcPH
F51 P11bxkC C2021 01 064:ux_.9f5fsZ*NtaomStJUEB%F`/.D2)vrk5^'!W;`+i!]TNUX]T
F51 P11bxkC C2021 01 06F:Le#JQ,FIx6-Y7dNQJqR$T,Sc6s-gY]j]5Q)^OsFbedj4;omJUF
F51 P11bxkC |C2021 01 073N6+GwJhV-Ymv0Q[9J'U5Ey,Z:!Md0MR^=]_o-NKoasEqJdta?d-
807 P11bxkC |C2021 01 07pAXqHw[OO@F2Y;taACH:h?dI)8dq@rlSC:P%CYyjE2_?tBt+^.Ew
807 P11bxkC |C2021 01 07ryDBL6Oo+%tN8Mr^`X#Z8t3YKgH_@)NtlC%Kr-dE_8Y?*Sv=2nCy
807 P11bxkC KC2021 01 07.18036 00 42 13.77 +25 43 04.9 ~17C7 21.1 RoNEOCP691 P11bxkC KC2021 01 07.19286 00 42 14.53 +25 43 06.0 ~17C7 20.8 RoNEOCP691 P11bxkC KC2021 01 07.20536 00 42 15.35 +25 43 07.2 ~17C7 20.5 RoNEOCP691 P11bxkC |C2021 01 08fk9`GB#uIsuNE)lDcn*UN#_'yWnHTm4E,uG)RvyUIu)nXP9ADwPL
H06 P11bxkC |C2021 01 08iT
AstrometryTFHVTojV?!_Kw^G30ok`b2^_b1:,?H,A$a6H;lh+
H06 P11bxkC C2021 01 08.08725 00 43 11.75 +25 44 09.7 ~198q 21.8 GVNEOCPG96 P11bxkC C2021 01 08.09885 00 43 12.47 +25 44 10.0 ~198q 22.2 GVNEOCPG96 P11bxkC C2021 01 0999Dt:W*0IDr5\2RmL^2tjSRQDljhbv\VtVp+:ZT8-DtsPByh.s2%
711 P11bxkC C2021 01 09`%0PHM*)T:S`.hnFO8tHBG0KtwAy;'$K1Rld[F$5,2W!2,m-Tj#!
711 P11bxkC C2021 01 09T(OQIN
redacted;lP,r3J.w,TVu;h,U8clS?G.v_K$RV0JLwNZu4
711 P11bxkC KC2021 01 10h+c)soy(-cDSpX@PETJ!?NMVakkPvT3JJ3RWPQ1oeYipQ4J!jC)q
N51 P11bxkC KC2021 01 10`_Y+Pc(_v,/c8@9i+n8qM'g$pkY`5bWO!jZ,Sk*HmataPUCQ\$`t
N51 P11bxkC KC2021 01 10c?Zx[lM\\bBj$3tMgAhb\rhk;?M@7g:,OSAAZXWBG!4u(Uqp=-h_
N51 P11bxkC KC2021 01 10y*X$Inr$TGWvBkTh.!iBQqRHAIU//.mA5Kk]Do7kg4qAh9Pi\L@-
N51 P11bxkC KC2021 01 10$B
clickN(R87:_2O1#fUL$Rkh$gVqq
hereTwtaV=j^o(O/ga9x?Y
N51 P11bxkC KC2021 01 10-k].x)vVJ-MA-[r'CNxg2GIaW6IJih)P3A^1$5g
for(Bo#)Pu0MJ
N51 P11bxkC KC2021 01 10c:60cxAT!kwCOMVJfB(!c0wX3ZcbD62-+In!_+yy4M/89Q@n;*EM
N51 P11bxkC ^C2021 01 11.24743900 46 40.097+25 48 40.19 ~1BE7 21.64GVNEOCP568 P11bxkC ^C2021 01 11.24899500 46 40.186+25 48 40.31 ~1BE7 21.72GVNEOCP568 P11bxkC ^C2021 01 11.25041000 46 40.287+25 48 40.42 ~1BE7 21.65GVNEOCP568 P11bxkC ^C2021 01 11.25180300 46 40.365+25 48 40.52 ~1BE7 21.72GVNEOCP568 P11bxkC ^C2021 01 11.25302500 46 40.452+25 48 40.76 ~1BE7 21.71GVNEOCP568 P11bxkC ^C2021 01 11.25424500 46 40.531+25 48 40.78 ~1BE7 21.70GVNEOCP568 P11bxkC KC2021 01 11q%6YI'FW2IuZJ4]?6%Sc4kV@eJ[oob@NyxUlI*LM/S82kc7t@xUL
587 P11bxkC KC2021 01 11HlvqltQF)CogoB,YODY;ivp\)IlUqd!m5HhfnK/9X`ykjC$+f!Gm
587 P11bxkC KC2021 01 12K^Pt*_kn`9).[IW,2uyj5x6%u:eb;2UAJ_oTD;^T_G5.$u@yue4s
H36 P11bxkC KC2021 01 12!nIoY1eE@,p%!$#[;J@b_Of5Ie04T]iH,_'qJL70veUs(65RVwl_
H36 P11bxkC KC2021 01 12'c]kQ7(A_iZ@`^GxHCn3xho4WE.n^LOG0ty!V@aET[,l(^:RM$tC
H36 P11bxkC KC2021 01 12m+El:mP@BxPp
explanationwRLqmr%(Xq1p17^ow'b\TPs_qo]G?
858 P11bxkC KC2021 01 124Sl+0)P':Fl+HPy2=\8K2f0)5G+U[8!@9?*BI16o#uq.OqtF-frs
858 P11bxkC HC2021 01 12.10838 00 47 38.67 +25 50 06.9 ~1C47 21.7 RoNEOCP691 P11bxkC HC2021 01 12.11894 00 47 39.41 +25 50 07.7 ~1C47 20.8 RoNEOCP691 P11bxkC ^C2021 01 15.21866300 51 15.968+25 56 01.12 ~1FE7 21.64GVNEOCP568 P11bxkC ^C2021 01 15.21987400 51 16.041+25 56 01.26 ~1FE7 21.82GVNEOCP568 P11bxkC ^C2021 01 15.22108700 51 16.155+25 56 01.40 ~1FE7 21.61GVNEOCP568 Station data: (568) Mauna Kea (N19.826116 W155.472200) US/Hawaii. (587) Sormano (N45.882949 E9.229180) Italy. Observers F. Manca, A. Testa. Measurer F. Manca. 0.5-m + CCD. (691) Steward Observatory, Kitt Peak - Spacewatch (N31.962174 W111.600327) US/Arizona. Observer J. V. Scotti. 0.9-m f/3 reflector + CCD. (711) McDonald Observatory, Fort Davis (N30.671481 W104.021500) US/Texas. 0.76-m f/3.0 reflector. (807) Cerro Tololo Observatory, La Serena (S30.169136 W70.805900) Chile. (858) Tebbutt Observatory, Edgewood (N35.093872 W106.220000) US/New Mexico. (F51) Pan-STARRS 1, Haleakala (N20.707235 W156.255910) US/Hawaii. Observers N. Primak, A. Schultz, S. Watters, J. Thiel, T. Goggia. Measurer PS1 Science Consortium. 1.8-m Ritchey-Chrétien + CCD. (G96) Mt. Lemmon Survey (N32.442754 W110.788720) US/Arizona. Observers T. A. Pruyne, B. M. Africano, E. J. Christensen, G. A. Farneth, D. C. Fuls, A. R. Gibbs, A. D. Grauer, H. Gröller, J. A. Johnson, R. A. Kowalski, S. M. Larson, G. J. Leonard, D. Rankin, R. L. Seaman, F. C. Shelly. 1.5-m reflector + 10K CCD. (H06) RAS Observatory, Mayhill (N32.903325 W105.528700) US/New Mexico. Observers E. Guido, G. Sostero, V. Gonano, L. Donato. (H36) Sandlot Observatory, Scranton (N38.797693 W95.706400) US/Kansas. Observer G. Hug. 0.56-m reflector + CCD. (N51) GROWTH India Telescope, IAO, Hanle (N32.779244 E78.964610) India. Orbital elements: P11bxkC Perihelion 2020 Nov 11.752880 +/- 2.24064 TT = 18:04:08 (JD 2459165.252880) Epoch 2021 Jan 15.0 TT = JDT 2459229.5 AutoNEOCP M 11.89517042 +/- 0.4548588 (J2000 ecliptic) n 0.18514713 +/- 0.000685723 Peri. 61.18352 +/- 0.5991549 a 3.04877034 +/- 0.00752868 Node 328.74292 +/- 0.0570147 e 0.1401948 +/- 0.00158909 Incl. 18.18732 +/- 0.0025908 P 5.32 H 16.4 G 0.15 U 7.9 q 2.62134834 +/- 0.0016363 Q 3.47619234 +/- 0.0134969 From 43 observations 2020 Dec. 16-2021 Jan. 15; mean residual 0".54
Residuals in arcseconds: 201216 G96 .40+ .34+ 210109 711 .49- .84+ 210111 568 .54- .40- 201216 G96 .33- .34- 210109 711 .90- .49+ 210111 587 .07- .33- 210106 F51 .27- .18- 210109 711 .25- .71+ 210111 587 .01- .44+ 210106 F51 .36- .44- 210110 N51 .68+ .11- 210112 H36 .80+ .20- 210106 F51 .50- .36- 210110 N51 .63+ .13- 210112 H36 .02- .11+ 210107 807 .47- .00 210110 N51 .86+ .05- 210112 H36 .29+ .51+ 210107 807 .67- .59- 210110 N51 .64+ .03- 210112 858 .12+ .33+ 210107 807 .52- .38- 210110 N51 .58+ .05+ 210112 858 .60- .28- 210107 691 .05- .17- 210110 N51 .56+ .07- 210112 691 .12+ .85+ 210107 691 .33- .17+ 210110 N51 .67+ .08- 210112 691 .54+ .60+ 210107 691 .18+ .62+ 210111 568 .31- .36- 210115 568 .32- .35- 210108 H06 1.7+ .07+ 210111 568 .50- .39- 210115 568 .48- .36- 210108 H06 2.4+ .04+ 210111 568 .40- .41- 210115 568 .08- .36- 210108 G96 .58- .18+ 210111 568 .60- .43- 210108 G96 .72- .35- 210111 568 .51- .31- Ephemerides (geocentric): Date (UTC) HH RA Dec delta r elong mag " sig PA ---- -- -- -- ------------- ----------- ------ ------ ----- --- ---- --- 2021 01 15 19 00 51 57.129 +25 57 13.81 2.4970 2.6340 86.9 21.5 .246 176 2021 01 15 20 00 52 00.124 +25 57 19.18 2.4976 2.6340 86.9 21.5 .249 176 2021 01 15 21 00 52 03.122 +25 57 24.56 2.4981 2.6340 86.9 21.5 .251 176 2021 01 15 22 00 52 06.120 +25 57 29.94 2.4986 2.6341 86.8 21.5 .253 176 2021 01 15 23 00 52 09.121 +25 57 35.34 2.4992 2.6341 86.8 21.5 .255 176 2021 01 16 00 00 52 12.123 +25 57 40.76 2.4997 2.6341 86.8 21.5 .257 176 2021 01 16 01 00 52 15.126 +25 57 46.18 2.5002 2.6341 86.7 21.5 .260 176 2021 01 16 02 00 52 18.131 +25 57 51.61 2.5008 2.6341 86.7 21.5 .262 176 2021 01 16 03 00 52 21.138 +25 57 57.06 2.5013 2.6341 86.7 21.5 .264 176 2021 01 16 04 00 52 24.146 +25 58 02.52 2.5018 2.6342 86.6 21.5 .266 176 2021 01 16 05 00 52 27.156 +25 58 07.99 2.5024 2.6342 86.6 21.5 .268 176 2021 01 16 06 00 52 30.168 +25 58 13.47 2.5029 2.6342 86.6 21.5 .271 176 2021 01 16 07 00 52 33.181 +25 58 18.96 2.5034 2.6342 86.6 21.5 .273 176 2021 01 16 08 00 52 36.195 +25 58 24.47 2.5040 2.6342 86.5 21.5 .275 176 2021 01 16 09 00 52 39.212 +25 58 29.99 2.5045 2.6342 86.5 21.5 .277 175 2021 01 16 10 00 52 42.229 +25 58 35.51 2.5050 2.6343 86.5 21.5 .279 175 2021 01 16 11 00 52 45.249 +25 58 41.05 2.5055 2.6343 86.4 21.5 .282 175 2021 01 16 12 00 52 48.270 +25 58 46.60 2.5061 2.6343 86.4 21.5 .284 175 2021 01 16 13 00 52 51.292 +25 58 52.17 2.5066 2.6343 86.4 21.5 .286 175 2021 01 16 14 00 52 54.316 +25 58 57.74 2.5071 2.6343 86.4 21.6 .288 175 2021 01 16 15 00 52 57.342 +25 59 03.33 2.5077 2.6343 86.3 21.6 .291 175 2021 01 16 16 00 53 00.369 +25 59 08.92 2.5082 2.6343 86.3 21.6 .293 175 2021 01 16 17 00 53 03.398 +25 59 14.53 2.5087 2.6344 86.3 21.6 .295 175 2021 01 16 18 00 53 06.429 +25 59 20.15 2.5093 2.6344 86.2 21.6 .297 175 2021 01 16 19 00 53 09.461 +25 59 25.78 2.5098 2.6344 86.2 21.6 .300 175 2021 01 16 20 00 53 12.494 +25 59 31.43 2.5103 2.6344 86.2 21.6 .302 175 2021 01 16 21 00 53 15.529 +25 59 37.08 2.5109 2.6344 86.1 21.6 .304 175 2021 01 16 22 00 53 18.566 +25 59 42.75 2.5114 2.6344 86.1 21.6 .307 175 2021 01 16 23 00 53 21.604 +25 59 48.43 2.5119 2.6345 86.1 21.6 .309 175 2021 01 17 00 00 53 24.644 +25 59 54.11 2.5125 2.6345 86.1 21.6 .311 175 2021 01 17 01 00 53 27.685 +25 59 59.82 2.5130 2.6345 86.0 21.6 .313 175 2021 01 17 02 00 53 30.728 +26 00 05.53 2.5135 2.6345 86.0 21.6 .316 174 2021 01 17 03 00 53 33.773 +26 00 11.25 2.5141 2.6345 86.0 21.6 .318 174 2021 01 17 04 00 53 36.819 +26 00 16.99 2.5146 2.6345 85.9 21.6 .320 174 2021 01 17 05 00 53 39.866 +26 00 22.73 2.5151 2.6346 85.9 21.6 .323 174 2021 01 17 06 00 53 42.916 +26 00 28.49 2.5156 2.6346 85.9 21.6 .325 174 2021 01 17 07 00 53 45.966 +26 00 34.26 2.5162 2.6346 85.9 21.6 .327 174 2021 01 17 08 00 53 49.019 +26 00 40.04 2.5167 2.6346 85.8 21.6 .329 174 2021 01 17 09 00 53 52.072 +26 00 45.83 2.5172 2.6346 85.8 21.6 .332 174 2021 01 17 10 00 53 55.128 +26 00 51.63 2.5178 2.6346 85.8 21.6 .334 174 2021 01 17 11 00 53 58.185 +26 00 57.45 2.5183 2.6347 85.7 21.6 .336 174 2021 01 17 12 00 54 01.243 +26 01 03.27 2.5188 2.6347 85.7 21.6 .339 174 2021 01 17 13 00 54 04.303 +26 01 09.11 2.5194 2.6347 85.7 21.6 .341 174 2021 01 17 14 00 54 07.365 +26 01 14.96 2.5199 2.6347 85.7 21.6 .343 174 2021 01 17 15 00 54 10.428 +26 01 20.82 2.5204 2.6347 85.6 21.6 .346 174 2021 01 17 16 00 54 13.493 +26 01 26.69 2.5210 2.6347 85.6 21.6 .348 174 2021 01 17 17 00 54 16.559 +26 01 32.57 2.5215 2.6348 85.6 21.6 .350 174 2021 01 17 18 00 54 19.627 +26 01 38.47 2.5220 2.6348 85.5 21.6 .353 174